DECAYED

STARLINK-2484, 48141 (Decayed)

Orbit data source: Space-Track

STARLINK-2484, 48141 was a payload satellite owned by SpaceX/Seattle (US) in LEO that was launched on Wed, 07 Apr 2021 UTC via an FALCON 9 launch vehicle from the Air Force Eastern Test Range (AFETR). Payload-class satellites include a variety of spacecraft equipped with specific instruments for various scientific and technological missions. These include communications satellites like Starlink; space stations such as the ISS; scientific satellites like the Hubble; Earth observation satellites from companies like Planet Labs, Umbra, and HawkEye 360; GPS; miniature CubeSats for education and research; and military/defense satellites.

Not visible in the next 10 days
Identifier
48141, 2021-027BB
Orbit
Decayed
Country
Flag of USUS
Related business
Manufacturer
SpaceX/Seattle
Mission
Decayed Commercial Communications
Bus & Motor
STARLINK, Unknown motor
Mass
260 kg wet, ~248 kg dry
Launch date (UTC)
2021-04-07 (5 years ago)
Launch vehicle
FALCON 9
Launch site
Air Force Eastern Test Range (AFETR)
Object type
Payload
Rocket body
Debris
Shape & HBR
Box + 1 Pan, 10.1 m
Radar Cross Section
13.562 m², Large (>1 m²)

Expand to show TLE details & history
Last TLE update: 1 year ago

TLE from 1 year ago
0 STARLINK-2484
1 48141U 21027BB  25046.60319642  .02781148  11851-4  13232-2 0  9992
2 48141  53.0376  80.1907 0004562  28.5901 114.8517 16.20711648214089
Epoch: 2025-02-15T14:28Z
TLE epoch observation values (Epoch: 2025-02-15T14:28:36.170Z)
Latitude
28.47497°
Longitude
-126.75136°
Altitude
220.34 km
Speed
7.778 km/s
True Right ascension
15h 44m 59s
True Declination
28° 19' 10"
Sunlit
Object was in daylight at epoch
Visualization orbit readout
Latitude
Unknown
Longitude
Unknown
Altitude
Unknown
Speed
Unknown
Apparent Right ascension
Unknown
Apparent Declination
Unknown
Sunlit
N/A
Visualization observer readout
Local Sidereal Time
21:26:00
Azimuth
Unknown
Elevation
Unknown
Doppler factor
Unknown
Orbital elements
Apogee altitude
220.916 km
Perigee altitude
214.898 km
Semi-major axis
6,596.044 km
Eccentricity
0.00046
Inclination
53.0376°
RAAN
80.1907°
Arg. of periapsis
28.5901°
True anomaly
114.89912°
Mean anomaly
114.8517°
Eccentric anomaly
114.87541°
Mean motion
4.05152 °/min
Orbital period
88.86 mins
BSTAR
0.0013232
Loading maneuver chart data...
Computing Atmospheric mass density...

Documentation

Showing up to 5 results
|